Date,TemperatureHighF,TemperatureAvgF,TemperatureLowF,DewpointHighF,DewpointAvgF,DewpointLowF,HumidityHigh,HumidityAvg,HumidityLow,PressureMaxIn,PressureMinIn,WindSpeedMaxMPH,WindSpeedAvgMPH,GustSpeedMaxMPH,PrecipitationSumIn
2013-1-1,25.9,22.9,20.1,20.0,15.6,13.0,85,73,64,30.21,30.09,10,1,11,0.00
2013-1-2,26.9,24.4,18.8,23.0,19.1,13.0,85,80,75,30.20,30.12,9,2,11,0.00
2013-1-3,29.9,25.8,19.5,25.0,21.2,13.0,87,82,75,30.20,30.07,8,2,14,0.00
2013-1-4,33.8,30.0,26.6,28.0,25.0,22.0,86,81,74,30.20,30.07,13,5,22,0.00
2013-1-5,37.8,30.3,22.2,31.0,25.3,19.0,87,82,65,30.25,29.98,7,1,12,0.03
2013-1-6,36.3,33.5,30.3,33.0,29.0,25.0,87,84,76,30.30,29.88,6,2,12,0.19
2013-1-7,38.9,32.2,26.9,27.0,23.4,18.0,86,71,45,30.34,30.12,12,2,15,0.00
2013-1-8,38.4,32.3,27.2,29.0,26.5,24.0,87,79,68,30.22,30.09,5,1,10,0.00
2013-1-9,44.5,38.9,29.6,35.0,30.9,26.0,85,74,53,30.44,30.00,16,4,27,0.00
2013-1-10,45.5,34.1,24.0,32.0,26.6,20.0,87,76,50,30.55,30.08,6,1,10,0.16
2013-1-11,52.4,45.7,36.3,45.0,40.0,32.0,85,80,77,30.06,29.72,10,1,19,0.70
2013-1-12,56.4,48.4,37.3,49.0,41.9,33.0,85,78,61,29.96,29.75,8,2,18,0.03
2013-1-13,36.9,31.3,24.6,33.0,26.8,20.0,87,83,80,30.13,29.85,12,2,16,0.23
2013-1-14,25.5,21.7,16.6,19.0,16.7,13.0,87,81,71,30.46,30.14,12,2,16,0.00
2013-1-15,31.4,23.3,16.8,20.0,17.5,14.0,87,79,61,30.45,30.18,4,0,7,0.00
2013-1-16,35.1,27.9,17.0,30.0,22.4,14.0,87,80,62,30.17,29.81,13,3,19,0.00
2013-1-17,35.1,27.2,20.8,30.0,17.7,10.0,80,67,61,30.37,30.00,11,3,17,0.00
2013-1-18,40.3,28.6,17.8,31.0,19.0,10.0,84,68,59,30.44,29.91,17,2,22,0.00
2013-1-19,44.7,41.7,39.0,38.0,33.4,19.0,80,73,44,29.91,29.60,23,6,31,0.00
2013-1-20,37.6,17.7,15.0,22.0,11.8,9.0,86,78,54,30.24,29.65,20,5,34,0.00
2013-1-21,15.6,10.4,2.8,12.0,7.3,0.0,88,87,85,30.22,30.08,11,3,18,0.00
2013-1-22,9.5,4.7,0.8,6.0,1.7,-2.0,88,87,85,30.36,30.22,7,1,10,0.00
2013-1-23,18.1,11.5,4.0,15.0,8.5,1.0,88,87,86,30.36,30.11,4,0,6,0.00
2013-1-24,19.7,11.1,1.9,13.0,5.8,-1.0,88,80,63,30.68,30.27,2,0,5,0.00
2013-1-25,22.2,18.1,13.2,18.0,13.0,5.0,86,80,67,30.52,30.01,8,1,14,0.00
2013-1-26,29.1,24.1,20.1,22.0,18.9,16.0,87,81,62,30.47,30.10,5,0,9,0.00
2013-1-27,31.5,26.4,19.8,27.0,21.2,17.0,87,81,69,30.47,30.05,9,2,14,0.00
2013-1-28,43.7,36.8,31.6,39.0,32.3,27.0,86,83,80,30.05,29.84,10,1,14,0.56
2013-1-29,56.5,47.1,33.9,50.0,41.5,30.0,87,81,75,29.97,29.38,11,2,15,1.50
2013-1-30,50.8,39.6,24.6,44.0,34.4,20.0,86,81,76,29.40,29.12,9,2,25,0.53
2013-1-31,24.2,18.7,15.6,21.0,15.0,12.0,87,85,82,29.97,29.42,14,4,20,0.00
2013-2-1,16.1,13.8,10.7,13.0,10.6,8.0,88,87,85,30.29,29.98,10,3,14,0.00
2013-2-2,18.6,14.3,7.5,15.0,10.3,4.0,87,84,69,30.20,30.05,3,0,5,0.00
2013-2-3,19.6,15.0,8.6,16.0,11.6,6.0,87,86,82,30.07,29.93,6,1,12,0.00
2013-2-4,24.5,18.2,12.1,19.0,14.1,9.0,87,84,76,30.06,29.93,1,0,5,0.00
2013-2-5,29.0,19.8,6.0,25.0,16.2,3.0,88,85,81,30.05,29.81,9,1,15,0.00
2013-2-6,34.7,25.5,11.9,23.0,19.0,9.0,87,77,62,30.29,30.07,4,0,10,0.06
2013-2-7,33.1,30.1,27.5,29.0,24.9,22.0,85,81,76,30.25,29.89,6,0,10,0.00
2013-2-8,33.4,27.7,16.7,25.0,22.0,13.0,86,79,66,30.40,29.89,0,0,0,0.00
2013-2-9,35.0,21.0,6.6,23.0,14.9,3.0,87,78,60,30.47,30.23,6,0,8,0.00
2013-2-10,42.0,29.8,17.8,36.0,25.0,14.0,86,82,75,30.23,29.57,8,2,18,0.09
2013-2-11,44.9,35.4,30.3,40.0,29.9,24.0,85,80,75,29.92,29.52,20,6,24,0.01
2013-2-12,30.2,28.6,26.6,25.0,23.6,22.0,84,82,78,30.08,29.93,10,3,16,0.00
2013-2-13,38.7,30.1,21.9,31.0,24.8,18.0,85,81,68,29.95,29.75,5,1,9,0.03
2013-2-14,40.7,32.9,26.1,34.0,27.7,21.0,85,81,77,29.94,29.64,13,3,19,0.11
2013-2-15,27.5,24.3,20.2,24.0,17.9,15.0,85,77,64,30.18,29.94,9,2,11,0.00
2013-2-16,22.1,18.2,11.2,17.0,13.6,8.0,86,82,68,30.17,30.08,7,1,13,0.00
2013-2-17,27.1,14.6,2.6,12.0,7.5,0.0,87,75,54,30.29,30.17,6,0,7,0.00
2013-2-18,45.5,34.7,19.6,39.0,25.2,12.0,83,69,58,30.17,29.43,15,3,17,0.21
2013-2-19,43.3,24.5,16.2,38.0,20.3,13.0,87,84,79,30.02,29.38,17,6,26,0.10
2013-2-20,22.5,19.2,15.4,17.0,14.0,11.0,86,80,71,30.35,30.03,11,4,19,0.00
2013-2-21,27.6,23.1,20.5,20.0,17.3,15.0,83,78,70,30.42,30.20,8,1,18,0.00
2013-2-22,32.8,26.4,20.6,28.0,21.9,16.0,85,83,80,30.20,29.87,11,2,15,0.00
2013-2-23,31.3,28.5,25.7,27.0,24.2,22.0,85,84,71,29.95,29.86,8,2,17,0.00
2013-2-24,37.6,30.3,21.3,28.0,24.6,17.0,85,79,60,30.19,29.93,8,1,11,0.15
2013-2-25,42.0,29.2,16.2,29.0,21.5,12.0,85,74,54,30.26,30.11,4,0,6,0.05
2013-2-26,34.7,31.3,28.0,29.0,25.1,23.0,84,78,70,30.13,29.54,10,2,21,0.00
2013-2-27,36.5,33.9,32.2,31.0,28.5,27.0,83,81,79,29.64,29.50,4,0,6,0.50
2013-2-28,36.9,33.7,30.4,32.0,28.4,25.0,84,81,78,30.04,29.64,7,1,13,0.21
2013-3-1,30.9,27.5,22.6,25.0,20.3,16.0,82,75,64,30.20,30.04,6,1,8,0.00
2013-3-2,30.4,23.0,14.5,19.0,15.6,11.0,85,74,58,30.21,30.13,7,1,9,0.00
2013-3-3,32.1,22.5,13.0,19.0,15.0,9.0,86,74,52,30.16,30.07,10,1,12,0.00
2013-3-4,37.3,23.5,10.8,20.0,14.9,7.0,85,71,47,30.21,30.10,3,0,7,0.02
2013-3-5,33.2,26.9,21.2,25.0,19.8,14.0,84,75,66,30.15,29.89,7,1,16,0.00
2013-3-6,39.5,33.7,27.1,30.0,27.6,23.0,84,78,68,30.26,29.98,4,1,11,0.00
2013-3-7,37.3,32.3,24.3,29.0,24.4,20.0,84,73,54,30.45,30.25,8,1,11,0.00
2013-3-8,44.1,29.8,16.7,25.0,20.7,12.0,85,71,45,30.54,30.41,3,0,7,0.00
2013-3-9,43.3,35.6,24.0,34.0,27.3,20.0,84,73,58,30.41,29.97,8,1,13,0.00
2013-3-10,52.2,45.6,41.5,45.0,39.0,34.0,82,78,68,29.96,29.69,7,0,12,0.38
2013-3-11,52.5,44.1,34.5,46.0,37.7,29.0,83,78,70,29.69,29.49,14,2,20,0.27
2013-3-12,35.3,31.9,28.8,30.0,26.6,24.0,84,81,72,29.92,29.68,12,4,19,0.01
2013-3-13,31.4,27.4,23.2,24.0,19.0,14.0,85,72,51,30.28,29.92,15,4,20,0.00
2013-3-14,39.1,29.4,19.4,26.0,20.0,15.0,85,70,45,30.31,30.12,9,1,12,0.00
2013-3-15,39.4,35.8,32.5,34.0,30.7,27.0,84,82,79,30.11,29.86,6,2,12,0.06
2013-3-16,35.1,29.7,26.1,28.0,23.5,20.0,85,78,60,30.11,29.78,10,2,12,0.03
2013-3-17,32.9,27.8,24.0,21.0,16.8,12.0,76,64,48,30.30,30.11,10,2,12,0.00
2013-3-18,34.0,27.9,21.2,29.0,22.6,16.0,84,80,71,30.16,29.60,14,2,23,0.00
2013-3-19,29.4,24.0,19.8,25.0,17.9,15.0,86,78,59,29.99,29.67,14,7,25,0.00
2013-3-20,27.3,21.5,14.9,17.0,14.8,11.0,85,76,59,30.02,29.97,14,5,20,0.00
2013-3-21,30.2,24.1,13.5,25.0,18.8,10.0,85,80,72,30.03,29.95,11,3,20,0.00
2013-3-22,35.8,29.8,23.5,24.0,21.6,18.0,83,72,60,30.08,30.02,10,2,14,0.03
2013-3-23,35.4,30.3,24.3,25.0,23.2,20.0,84,75,64,30.17,30.08,4,1,8,0.00
2013-3-24,38.6,30.6,23.0,27.0,23.3,19.0,84,75,60,30.09,29.73,14,2,20,0.00
2013-3-25,39.1,34.4,30.6,28.0,26.0,23.0,80,72,59,30.02,29.69,11,4,14,0.00
2013-3-26,40.7,34.6,29.8,34.0,29.2,26.0,84,80,67,30.20,30.02,9,2,13,0.06
2013-3-27,43.4,36.5,29.8,30.0,26.7,23.0,84,69,48,30.29,30.20,10,3,18,0.02
2013-3-28,48.8,37.0,26.6,30.0,24.7,21.0,84,64,39,30.33,30.28,12,2,15,0.00
2013-3-29,50.5,36.6,22.8,32.0,24.7,18.0,84,66,36,30.32,30.25,8,2,13,0.00
2013-3-30,57.8,40.6,23.0,36.0,25.6,18.0,85,60,30,30.26,29.89,7,1,14,0.01
2013-3-31,49.1,43.2,37.0,40.0,35.9,31.0,83,75,60,29.88,29.68,15,4,21,0.03
2013-4-1,36.8,30.2,26.7,32.0,17.4,13.0,83,60,47,30.14,29.79,21,4,21,0.00
2013-4-2,37.1,29.9,20.4,21.0,17.1,13.0,84,61,39,30.31,30.14,12,3,20,0.00
2013-4-3,45.6,32.5,21.7,22.0,18.0,12.0,83,59,28,30.48,30.30,6,2,12,0.00
2013-4-4,52.6,40.5,25.3,28.0,21.9,18.0,80,51,30,30.37,29.98,15,3,18,0.00
2013-4-5,48.8,40.2,30.6,29.0,24.2,17.0,78,55,30,30.22,29.98,9,2,14,0.00
2013-4-6,58.6,48.0,36.1,43.0,26.9,17.0,65,45,35,30.21,29.68,16,4,23,0.01
2013-4-7,54.3,43.7,34.4,48.0,35.5,29.0,82,73,59,30.03,29.57,17,4,25,0.09
2013-4-8,53.1,41.4,33.6,48.0,35.5,29.0,82,79,76,30.02,29.66,11,3,23,0.47
2013-4-9,47.4,42.8,38.7,40.0,36.6,33.0,81,79,75,30.06,29.86,6,1,11,1.11
2013-4-10,42.0,40.2,37.7,37.0,34.3,32.0,83,79,77,30.03,29.81,10,2,16,0.39
2013-4-11,38.4,36.4,35.2,33.0,30.8,30.0,83,80,78,29.99,29.66,17,3,21,1.38
2013-4-12,41.5,37.5,33.6,36.0,31.9,28.0,84,80,77,29.78,29.58,11,2,19,0.30
2013-4-13,38.9,36.7,34.9,32.0,30.0,26.0,84,77,61,30.00,29.78,18,5,23,0.07
2013-4-14,50.8,39.8,29.3,42.0,33.5,24.0,83,78,69,30.11,29.84,10,2,16,0.08
2013-4-15,65.2,54.5,44.9,56.0,46.6,38.0,81,75,69,29.94,29.80,9,2,17,0.64
2013-4-16,50.8,45.9,41.1,40.0,35.6,30.0,84,68,48,30.27,29.93,9,2,14,0.33
2013-4-17,52.2,45.6,41.2,41.0,36.0,32.0,81,70,50,30.34,29.95,12,2,24,1.19
2013-4-18,63.1,55.2,44.4,57.0,47.9,37.0,80,76,72,29.99,29.40,14,2,27,2.88
2013-4-19,57.6,39.0,33.9,51.0,33.1,26.0,84,79,69,29.79,29.43,18,6,30,0.25
2013-4-20,38.2,32.9,28.5,28.0,21.2,15.0,84,63,39,30.48,29.79,10,4,20,0.00
2013-4-21,53.3,38.9,23.2,33.0,24.3,19.0,85,60,33,30.62,30.41,7,1,13,0.00
2013-4-22,66.5,50.9,33.9,34.0,31.0,28.0,82,51,24,30.42,30.12,9,2,13,0.00
2013-4-23,64.8,50.8,40.4,51.0,40.2,33.0,79,68,48,30.12,29.84,6,2,16,0.42
2013-4-24,44.9,38.5,33.8,34.0,29.0,24.0,84,70,44,30.11,29.88,10,3,19,0.12
2013-4-25,48.1,41.9,35.2,37.0,32.2,28.0,82,69,50,30.34,30.05,17,4,21,0.21
2013-4-26,66.0,49.9,32.3,42.0,34.4,27.0,83,59,36,30.43,30.27,11,2,15,0.00
2013-4-27,72.9,58.7,41.5,47.0,40.1,35.0,81,54,27,30.30,30.06,9,2,14,0.00
2013-4-28,65.5,58.4,51.6,54.0,46.5,38.0,79,65,51,30.06,29.82,5,1,9,0.00
2013-4-29,70.7,59.6,44.6,56.0,49.1,37.0,81,69,55,29.93,29.82,7,1,13,0.00
2013-4-30,80.8,67.2,56.7,62.0,56.6,49.0,79,70,52,29.95,29.84,11,3,21,0.76
2013-5-1,86.7,74.5,61.3,61.0,57.6,55.0,79,58,35,30.15,29.95,8,2,14,0.00
2013-5-2,84.4,70.4,59.3,62.0,56.7,52.0,78,64,37,30.16,30.05,8,1,11,0.00
2013-5-3,82.1,67.0,53.7,59.0,52.5,40.0,80,62,35,30.09,29.95,10,2,16,0.00
2013-5-4,76.5,67.3,57.5,51.0,44.3,40.0,63,45,28,30.06,29.97,5,1,13,0.00
2013-5-5,77.7,65.1,54.7,49.0,41.6,33.0,62,44,24,30.06,29.97,7,1,13,0.00
2013-5-6,78.0,63.4,47.2,48.0,41.1,34.0,78,49,21,30.05,29.95,5,0,8,0.00
2013-5-7,79.9,65.9,49.1,52.0,48.0,42.0,79,55,34,30.05,29.96,3,0,9,0.00
2013-5-8,80.7,67.9,53.4,57.0,51.1,46.0,78,58,35,30.02,29.93,7,1,10,0.00
2013-5-9,82.8,65.5,50.3,56.0,47.7,40.0,79,58,25,29.97,29.86,10,1,14,0.02
2013-5-10,58.2,49.9,45.5,51.0,42.5,38.0,80,76,72,29.93,29.77,8,1,11,0.44
2013-5-11,53.5,46.2,38.2,48.0,39.6,33.0,82,78,61,29.95,29.76,15,3,25,0.06
2013-5-12,46.7,41.0,37.9,36.0,30.7,27.0,83,67,48,30.14,29.94,15,4,17,0.00
2013-5-13,54.0,43.6,28.8,34.0,26.9,20.0,84,56,28,30.21,30.07,8,1,13,0.00
2013-5-14,73.1,61.1,47.1,55.0,43.8,28.0,79,54,44,30.08,29.61,10,2,17,0.00
2013-5-15,76.3,68.8,55.7,61.0,51.7,42.0,79,56,35,29.81,29.54,10,2,15,0.00
2013-5-16,80.8,65.5,46.9,53.0,46.5,40.0,80,54,29,29.99,29.80,7,1,13,0.00
2013-5-17,70.1,62.2,53.2,49.0,44.9,40.0,65,54,37,30.10,30.00,9,1,10,0.00
2013-5-18,83.6,69.2,54.8,62.0,52.7,47.0,75,57,38,30.12,29.96,5,1,11,0.00
2013-5-19,88.6,75.3,58.2,65.0,57.7,48.0,71,56,43,29.98,29.79,7,1,12,0.00
2013-5-20,87.7,78.4,68.8,71.0,64.9,60.0,78,65,40,29.83,29.70,12,2,21,0.31
2013-5-21,81.7,73.0,63.5,67.0,62.6,54.0,78,70,55,29.75,29.66,10,2,25,0.29
2013-5-22,69.9,65.3,57.1,63.0,56.7,49.0,79,74,71,29.70,29.60,8,1,18,0.50
2013-5-23,56.9,51.4,43.4,49.0,44.7,37.0,82,78,71,30.23,29.70,8,1,12,0.45
2013-5-24,59.7,48.2,35.9,45.0,38.4,31.0,83,70,53,30.40,30.24,8,2,11,0.00
2013-5-25,68.3,54.1,39.1,44.0,37.5,32.0,82,58,28,30.41,30.29,2,0,8,0.00
2013-5-26,71.6,58.6,42.9,45.0,39.6,35.0,81,54,29,30.35,30.20,4,1,9,0.00
2013-5-27,59.5,54.1,50.2,48.0,42.8,38.0,79,66,51,30.21,29.95,7,1,12,0.09
2013-5-28,76.6,63.1,52.6,68.0,54.9,45.0,79,75,69,29.95,29.75,6,1,11,1.60
2013-5-29,81.3,69.5,62.2,68.0,60.6,53.0,79,73,61,29.96,29.77,12,1,12,0.15
2013-5-30,87.3,78.0,67.1,73.0,67.1,60.0,79,70,55,29.95,29.84,8,2,19,0.02
2013-5-31,80.1,74.2,66.0,68.0,64.5,57.0,79,72,59,29.89,29.75,12,2,17,0.25
2013-6-1,78.7,71.7,63.5,66.0,62.0,55.0,81,72,58,29.76,29.64,13,3,20,0.43
2013-6-2,63.4,55.6,46.7,55.0,47.5,41.0,84,75,64,30.03,29.62,9,2,14,0.06
2013-6-3,66.7,54.1,40.2,46.0,41.1,34.0,83,64,43,30.12,30.02,5,1,13,0.00
2013-6-4,75.1,62.3,46.7,52.0,46.7,41.0,82,59,41,30.19,30.11,3,0,7,0.00
2013-6-5,72.8,63.0,56.8,51.0,45.8,39.0,80,55,32,30.15,29.99,7,1,9,0.05
2013-6-6,64.7,59.0,55.1,54.0,50.9,48.0,81,75,66,30.00,29.89,5,1,8,0.10
2013-6-7,76.4,63.0,50.3,52.0,48.4,44.0,82,62,36,29.95,29.84,6,1,8,0.00
2013-6-8,74.8,64.2,50.6,55.0,50.4,44.0,82,63,35,30.02,29.89,3,1,7,0.00
2013-6-9,81.8,70.2,58.2,64.0,58.8,52.0,81,68,50,30.04,29.87,6,1,14,0.00
2013-6-10,75.1,67.8,62.9,67.0,59.9,55.0,81,76,67,29.88,29.73,3,0,6,0.25
2013-6-11,79.9,67.9,56.5,68.0,59.4,50.0,82,74,65,29.91,29.80,9,2,11,0.00
2013-6-12,80.3,70.2,63.5,71.0,62.2,55.0,81,76,70,29.91,29.62,3,0,9,0.76
2013-6-13,77.1,68.3,59.5,62.0,57.6,52.0,82,69,53,29.97,29.60,13,1,14,0.51
2013-6-14,79.3,66.6,54.8,58.0,54.0,48.0,82,66,42,30.10,29.97,7,1,10,0.00
2013-6-15,74.4,65.6,54.8,64.0,57.7,47.0,82,76,67,30.05,29.85,7,1,13,0.00
2013-6-16,79.5,70.1,63.9,67.0,60.1,55.0,81,71,53,29.87,29.78,9,2,12,1.64
2013-6-17,83.3,71.8,58.4,64.0,57.5,51.0,82,63,38,29.91,29.83,8,1,14,0.00
2013-6-18,74.7,65.9,57.4,58.0,51.6,43.0,82,63,35,30.07,29.90,6,1,10,0.00
2013-6-19,78.5,64.6,47.7,52.0,45.8,42.0,82,54,31,30.17,30.08,4,1,7,0.00
2013-6-20,85.9,70.0,51.3,60.0,52.6,45.0,81,58,33,30.18,30.10,6,1,8,0.00
2013-6-21,84.3,75.1,64.2,67.0,63.0,58.0,80,67,53,30.14,29.94,7,1,13,0.00
2013-6-22,88.5,76.9,68.9,71.0,67.1,62.0,80,72,52,30.08,29.93,6,1,10,0.00
2013-6-23,88.5,79.9,69.3,71.0,67.7,63.0,81,67,52,30.00,29.91,9,3,13,0.00
2013-6-24,85.6,77.8,71.2,70.0,67.6,64.0,81,72,54,30.02,29.83,13,2,16,0.00
2013-6-25,81.6,72.0,66.6,73.0,64.9,58.0,82,78,73,29.97,29.79,7,1,13,0.65
2013-6-26,87.3,76.6,66.8,72.0,67.0,59.0,83,73,55,29.83,29.70,4,1,8,0.00
2013-6-27,83.4,75.5,68.0,72.0,67.0,60.0,82,75,59,29.73,29.64,8,2,15,0.00
2013-6-28,79.3,71.5,65.4,67.0,62.3,58.0,83,73,61,29.64,29.53,12,1,15,0.11
2013-6-29,75.8,67.7,61.9,66.0,60.4,55.0,84,77,70,29.74,29.55,3,0,7,0.41
2013-6-30,82.8,72.4,63.0,64.0,58.4,46.0,83,64,36,29.97,29.74,5,1,10,0.00
2013-7-1,79.5,68.6,57.6,55.0,50.4,45.0,75,54,37,30.08,29.97,9,1,13,0.00
2013-7-2,66.9,62.8,57.2,60.0,53.2,41.0,83,72,43,30.08,30.03,6,0,6,0.19
2013-7-3,82.6,68.8,60.7,68.0,60.7,53.0,83,76,56,30.07,29.99,6,1,10,0.25
2013-7-4,80.3,70.9,62.8,65.0,60.4,56.0,84,71,49,30.11,30.04,5,1,10,0.01
2013-7-5,86.8,75.3,63.5,66.0,62.6,56.0,83,66,45,30.09,30.00,4,1,10,0.00
2013-7-6,86.7,75.1,67.2,70.0,65.9,60.0,82,74,52,30.06,29.95,6,1,8,0.00
2013-7-7,85.7,76.8,71.0,72.0,68.0,64.0,82,75,60,30.00,29.92,9,1,13,0.00
2013-7-8,79.1,75.5,71.8,72.0,69.0,65.0,82,80,77,29.99,29.92,11,1,14,0.02
2013-7-9,85.8,75.3,67.8,76.0,67.6,60.0,84,77,66,29.97,29.83,5,1,11,0.10
2013-7-10,81.0,76.4,64.0,73.0,65.1,57.0,83,69,50,29.95,29.78,8,2,17,0.00
2013-7-11,84.3,70.5,57.5,61.0,55.9,51.0,84,63,37,30.05,29.96,5,1,12,0.00
2013-7-12,85.8,72.9,58.2,60.0,57.0,53.0,83,61,35,30.15,30.04,3,1,8,0.00
2013-7-13,89.3,76.3,61.1,64.0,59.2,55.0,82,59,36,30.17,30.11,4,1,8,0.00
2013-7-14,93.8,80.6,65.5,71.0,66.3,59.0,82,64,42,30.21,30.16,5,1,10,0.00
2013-7-15,95.5,82.9,71.8,77.0,71.5,64.0,82,70,49,30.26,30.18,3,0,8,0.00
2013-7-16,91.1,83.2,74.1,77.0,71.9,66.0,82,69,55,30.27,30.21,7,2,11,0.00
2013-7-17,92.3,84.0,76.3,78.0,73.4,69.0,81,71,55,30.26,30.13,9,2,12,0.00
2013-7-18,92.9,85.2,75.4,77.0,73.1,68.0,81,68,52,30.13,29.89,8,2,14,0.00
2013-7-19,92.0,84.9,78.2,75.0,73.6,71.0,81,69,54,29.91,29.67,15,4,24,0.08
2013-7-20,85.9,78.7,68.1,73.0,63.1,57.0,83,61,39,29.92,29.70,7,1,13,0.00
2013-7-21,86.2,72.4,62.1,69.0,58.4,51.0,81,62,47,29.99,29.87,9,1,9,1.74
2013-7-22,86.3,74.1,64.4,70.0,64.6,58.0,84,73,54,29.93,29.71,4,1,11,0.10
2013-7-23,79.0,72.5,57.9,71.0,63.2,50.0,83,73,52,29.93,29.63,9,2,16,0.00
2013-7-24,77.6,63.1,50.1,54.0,49.9,46.0,85,65,39,30.04,29.94,6,1,8,0.00
2013-7-25,77.9,66.3,53.3,58.0,53.4,48.0,84,65,42,30.10,30.03,6,1,12,0.00
2013-7-26,74.9,67.0,61.5,62.0,58.4,54.0,83,74,62,30.04,29.86,7,1,12,0.26
2013-7-27,68.5,62.3,55.9,61.0,55.2,50.0,85,78,69,29.86,29.80,10,2,15,0.00
2013-7-28,64.7,58.0,54.1,56.0,51.8,48.0,85,80,66,29.95,29.80,9,2,18,0.45
2013-7-29,69.9,61.7,56.7,58.0,54.4,51.0,86,77,63,30.19,29.93,7,1,10,0.04
2013-7-30,80.6,66.1,50.0,62.0,54.8,45.0,86,69,49,30.22,30.09,4,1,7,0.03
2013-7-31,71.2,66.4,62.7,66.0,61.0,57.0,84,83,79,30.10,29.90,3,0,9,0.13
2013-8-1,76.6,68.0,61.5,64.0,57.8,54.0,86,72,46,29.93,29.89,12,2,16,0.01
2013-8-2,73.7,66.6,60.1,66.0,61.1,55.0,85,82,77,29.92,29.82,7,1,10,0.02
2013-8-3,78.8,68.2,57.7,64.0,55.7,52.0,86,67,43,30.07,29.90,9,1,13,0.00
2013-8-4,75.0,64.6,55.1,57.0,52.5,48.0,86,67,46,30.19,30.07,8,1,11,0.00
2013-8-5,72.7,61.4,50.3,62.0,53.8,45.0,87,76,59,30.11,29.92,4,0,8,0.00
2013-8-6,78.0,69.9,64.9,70.0,64.6,60.0,85,83,74,29.92,29.83,5,1,9,0.01
2013-8-7,81.0,73.0,63.8,73.0,66.5,58.0,86,80,68,29.92,29.78,6,1,11,0.27
2013-8-8,80.8,68.8,58.8,60.0,55.1,50.0,87,65,37,30.02,29.92,3,0,6,0.00
2013-8-9,79.6,69.3,56.1,63.0,58.4,51.0,85,70,48,30.00,29.95,8,1,13,0.00
2013-8-10,80.0,70.5,60.5,62.0,57.2,52.0,86,65,42,30.12,30.01,3,1,9,0.00
2013-8-11,76.5,68.3,58.7,60.0,57.3,54.0,86,70,48,30.11,30.03,5,1,11,0.00
2013-8-12,76.8,68.1,64.6,69.0,62.0,58.0,86,81,74,30.04,29.84,2,0,4,0.91
2013-8-13,67.9,61.1,52.3,61.0,50.9,47.0,87,71,49,30.11,29.89,9,1,12,0.00
2013-8-14,71.9,58.3,46.7,54.0,48.7,42.0,87,72,46,30.21,30.12,9,1,11,0.00
2013-8-15,75.2,61.1,47.6,60.0,51.3,43.0,87,72,48,30.16,30.08,9,1,13,0.00
2013-8-16,83.0,66.7,52.6,62.0,54.4,47.0,87,67,39,30.19,30.12,4,0,9,0.00
2013-8-17,84.7,69.6,54.0,62.0,54.8,49.0,86,63,34,30.25,30.16,5,0,6,0.00
2013-8-18,83.9,69.7,54.9,62.0,56.9,50.0,86,67,43,30.22,30.09,6,1,8,0.00
2013-8-19,82.3,69.1,54.6,63.0,57.9,49.0,87,69,47,30.11,30.02,8,1,11,0.00
2013-8-20,84.6,73.1,61.4,70.0,63.7,56.0,86,74,51,30.10,30.04,7,1,13,0.00
2013-8-21,87.3,76.9,65.0,70.0,66.1,59.0,85,70,51,30.07,29.93,8,1,13,0.00
2013-8-22,77.8,70.5,64.4,70.0,65.1,58.0,86,83,74,30.07,29.94,10,1,24,0.11
2013-8-23,84.0,70.0,54.1,60.0,54.3,49.0,86,62,32,30.18,30.07,3,0,6,0.01
2013-8-24,85.3,70.6,56.2,62.0,57.2,52.0,87,66,39,30.28,30.17,5,1,7,0.00
2013-8-25,86.4,75.1,63.0,68.0,63.3,58.0,84,68,53,30.25,30.10,9,2,15,0.00
2013-8-26,84.4,76.9,69.7,73.0,68.8,65.0,84,76,67,30.12,29.95,9,2,12,0.00
2013-8-27,89.8,81.3,73.4,77.0,72.5,66.0,85,75,58,29.96,29.76,13,2,14,0.22
2013-8-28,87.2,77.4,72.2,74.0,69.7,66.0,86,77,59,30.00,29.77,2,0,6,0.19
2013-8-29,91.1,77.8,66.5,71.0,66.4,61.0,87,70,45,30.07,29.97,3,1,10,0.00
2013-8-30,88.4,77.2,68.4,74.0,68.9,63.0,86,76,59,29.97,29.71,9,2,16,0.00
2013-8-31,82.7,72.7,64.3,68.0,64.4,59.0,86,76,59,29.84,29.77,4,0,6,0.00
2013-9-1,84.5,73.0,64.3,72.0,66.8,59.0,86,81,64,29.82,29.69,8,1,12,0.00
2013-9-2,71.6,65.6,60.1,67.0,58.1,53.0,88,77,67,29.96,29.73,9,1,13,0.00
2013-9-3,73.6,64.2,55.3,57.0,54.7,52.0,87,72,53,30.05,29.95,9,1,12,0.00
2013-9-4,79.2,66.7,55.1,64.0,58.1,50.0,88,75,53,30.10,30.01,9,2,16,0.00
2013-9-5,76.3,64.4,54.0,61.0,49.7,43.0,88,63,31,30.27,30.11,3,1,7,0.00
2013-9-6,82.1,65.4,50.0,58.0,52.1,47.0,88,66,36,30.26,30.01,8,1,8,0.00
2013-9-7,80.7,71.8,65.3,69.0,64.2,57.0,86,77,64,30.02,29.88,6,1,11,0.06
2013-9-8,80.0,70.7,65.0,64.0,60.4,57.0,87,71,49,30.07,29.93,7,1,10,0.00
2013-9-9,86.6,72.5,60.2,74.0,65.2,55.0,87,78,64,30.02,29.80,6,1,10,2.89
2013-9-10,92.4,83.8,76.8,74.0,69.5,66.0,83,64,43,29.95,29.81,11,2,15,0.00
2013-9-11,85.7,77.2,67.6,72.0,67.7,63.0,86,73,50,30.02,29.93,5,2,11,0.00
2013-9-12,76.9,68.0,56.7,62.0,57.1,50.0,87,69,46,30.04,29.89,5,1,10,0.01
2013-9-13,65.8,56.0,48.4,50.0,44.0,38.0,87,67,36,30.15,30.04,5,1,9,0.00
2013-9-14,67.9,54.9,41.2,54.0,46.1,37.0,88,74,51,30.20,30.06,9,1,13,0.00
2013-9-15,59.2,56.2,51.8,55.0,50.9,46.0,87,82,70,30.15,30.04,2,0,5,0.10
2013-9-16,65.0,55.3,47.9,51.0,47.9,44.0,88,77,52,30.37,30.16,4,0,8,0.00
2013-9-17,71.4,54.3,39.4,52.0,45.0,36.0,89,73,45,30.41,30.19,5,0,8,0.01
2013-9-18,80.4,65.0,51.9,60.0,54.7,48.0,88,71,49,30.19,29.95,5,1,9,0.01
2013-9-19,76.3,69.3,64.4,69.0,63.4,57.0,86,81,69,29.98,29.81,5,1,10,0.78
2013-9-20,72.5,70.3,63.4,68.0,65.6,59.0,86,85,82,29.83,29.71,10,2,14,0.00
2013-9-21,64.3,59.3,53.7,59.0,52.1,48.0,88,78,58,29.92,29.70,6,1,14,0.00
2013-9-22,55.9,52.1,45.7,48.0,44.8,42.0,88,77,65,30.09,29.92,3,0,8,0.00
2013-9-23,67.5,52.0,38.7,48.0,43.1,35.0,89,74,49,30.19,30.09,4,0,10,0.00
2013-9-24,72.3,55.5,42.4,52.0,46.7,39.0,89,74,46,30.15,29.98,3,0,9,0.00
2013-9-25,74.1,58.4,46.2,54.0,48.7,42.0,88,73,44,30.02,29.95,4,0,8,0.00
2013-9-26,79.3,59.8,45.4,55.0,49.1,41.0,88,71,36,30.12,29.99,4,0,6,0.01
2013-9-27,80.7,62.9,47.5,57.0,51.6,43.0,88,70,40,30.21,30.11,3,0,11,0.00
2013-9-28,80.9,67.0,52.2,60.0,54.2,48.0,87,66,41,30.15,29.92,6,1,14,0.00
2013-9-29,72.9,63.0,51.9,62.0,53.9,48.0,87,73,52,30.00,29.89,7,1,11,0.37
2013-9-30,73.3,59.3,49.9,57.0,51.0,46.0,88,76,47,30.00,29.89,5,0,8,0.00
2013-10-1,74.0,63.4,53.7,66.0,58.7,49.0,87,85,75,29.96,29.89,8,1,13,0.00
2013-10-2,79.0,64.9,52.7,63.0,50.7,41.0,88,65,27,30.10,29.91,3,0,6,0.01
2013-10-3,78.3,64.8,52.2,69.0,59.6,48.0,88,83,72,30.03,29.88,7,1,10,0.00
2013-10-4,78.7,69.9,65.0,69.0,64.3,59.0,87,82,71,29.98,29.89,5,1,9,0.07
2013-10-5,78.0,69.7,65.2,72.0,64.8,60.0,87,84,81,29.99,29.76,6,0,11,0.48
2013-10-6,70.6,60.1,51.1,67.0,55.8,48.0,88,85,68,29.77,29.67,6,2,13,0.24
2013-10-7,60.7,52.6,46.5,51.0,47.1,43.0,89,82,63,30.10,29.68,11,2,16,0.42
2013-10-8,74.0,56.6,42.4,54.0,46.9,39.0,89,72,47,30.23,30.10,7,1,11,0.00
2013-10-9,74.6,57.9,44.7,52.0,47.7,41.0,88,72,41,30.30,30.17,5,0,10,0.00
2013-10-10,76.2,57.1,42.9,53.0,47.2,39.0,88,73,41,30.21,30.10,2,0,6,0.00
2013-10-11,73.3,56.8,43.1,52.0,46.2,40.0,88,71,35,30.15,30.03,4,0,8,0.01
2013-10-12,78.5,62.4,48.3,62.0,53.4,45.0,88,74,46,30.09,29.97,6,1,17,0.20
2013-10-13,62.2,53.6,44.1,57.0,46.4,40.0,88,78,57,30.39,30.10,10,1,11,0.01
2013-10-14,64.7,49.5,38.1,47.0,39.5,35.0,89,71,39,30.44,30.25,6,0,12,0.01
2013-10-15,64.8,54.6,43.5,58.0,49.9,40.0,89,84,75,30.25,29.78,8,1,12,0.29
2013-10-16,60.6,53.0,51.0,56.0,48.8,47.0,88,85,81,29.88,29.79,8,1,16,0.14
2013-10-17,52.1,49.1,42.3,48.0,45.5,39.0,90,87,85,29.88,29.74,6,1,10,0.51
2013-10-18,59.0,47.6,39.5,51.0,42.6,36.0,90,83,70,29.91,29.84,10,2,23,0.01
2013-10-19,52.6,45.7,41.1,45.0,40.4,33.0,90,82,51,29.89,29.75,7,1,14,0.26
2013-10-20,57.0,48.0,37.2,51.0,41.1,34.0,90,78,55,29.89,29.73,7,1,18,0.06
2013-10-21,53.9,47.6,40.6,51.0,40.7,26.0,89,77,57,29.90,29.76,13,3,21,0.11
2013-10-22,48.0,41.6,34.2,37.0,32.1,26.0,89,70,56,29.92,29.89,10,3,15,0.08
2013-10-23,43.9,37.1,32.2,37.0,32.6,29.0,90,84,58,29.98,29.88,6,1,12,0.05
2013-10-24,42.9,37.3,33.5,38.0,33.1,30.0,90,85,68,30.23,29.96,11,2,11,0.09
2013-10-25,46.8,40.1,32.4,37.0,32.6,29.0,90,76,53,30.36,30.02,7,2,16,0.00
2013-10-26,53.6,47.9,40.3,42.0,36.6,33.0,78,66,55,30.03,29.77,18,4,27,0.04
2013-10-27,51.2,43.2,36.2,37.0,35.1,33.0,89,74,55,30.05,29.97,12,2,16,0.00
2013-10-28,48.3,39.5,32.3,40.0,33.7,29.0,90,80,67,30.43,30.04,4,0,7,0.00
2013-10-29,52.5,42.8,38.3,40.0,34.2,30.0,87,72,62,30.45,30.23,4,0,7,0.00
2013-10-30,64.6,50.0,34.8,54.0,43.6,32.0,90,80,57,30.22,29.86,8,1,9,0.27
2013-10-31,62.8,59.8,55.1,58.0,55.4,52.0,89,85,84,29.84,29.09,10,2,16,1.20
2013-11-1,54.7,47.0,44.8,52.0,43.6,42.0,90,88,83,29.67,29.17,15,4,24,0.36
2013-11-2,49.5,45.3,42.2,43.0,40.3,37.0,91,83,65,30.11,29.67,2,0,8,0.06
2013-11-3,51.7,42.6,34.8,40.0,35.3,33.0,91,76,53,30.39,30.11,3,0,9,0.14
2013-11-4,54.1,45.7,38.6,42.0,35.2,33.0,85,68,49,30.40,30.21,7,2,19,0.00
2013-11-5,60.5,54.1,50.6,49.0,46.4,42.0,85,75,65,30.31,30.04,11,2,15,0.00
2013-11-6,56.5,50.2,40.8,53.0,46.8,38.0,91,88,71,30.04,29.73,16,3,24,1.36
2013-11-7,42.5,38.8,35.6,39.0,31.7,29.0,91,76,62,30.19,30.04,13,3,14,0.01
2013-11-8,45.1,39.7,34.2,34.0,30.7,27.0,89,71,53,30.31,30.09,6,1,10,0.00
2013-11-9,51.5,48.0,41.6,44.0,38.4,32.0,78,70,61,30.09,29.80,19,5,22,0.00
2013-11-10,46.6,41.9,34.7,34.0,31.9,29.0,86,68,58,30.28,29.95,13,4,22,0.00
2013-11-11,46.4,36.8,26.8,39.0,31.4,21.0,90,81,71,30.42,30.05,8,2,17,0.17
2013-11-12,35.1,28.0,22.9,25.0,20.7,17.0,89,75,51,30.63,30.42,12,2,17,0.00
2013-11-13,41.1,31.5,20.8,26.0,22.7,18.0,90,72,50,30.56,30.16,14,3,20,0.00
2013-11-14,47.7,40.5,32.8,34.0,28.9,25.0,76,64,48,30.17,29.96,13,3,18,0.00
2013-11-15,50.0,43.1,37.1,36.0,32.5,30.0,82,67,52,30.01,29.96,9,2,11,0.00
2013-11-16,56.2,48.7,37.4,53.0,43.7,32.0,89,83,75,30.02,29.64,12,3,20,0.37
2013-11-17,64.9,56.3,42.5,61.0,52.9,38.0,90,88,76,29.65,29.15,28,6,35,1.41
2013-11-18,45.7,38.5,34.9,40.0,30.1,25.0,80,72,64,30.19,29.55,19,7,26,0.00
2013-11-19,46.5,36.2,30.2,26.0,24.6,23.0,80,64,42,30.40,30.20,4,1,10,0.00
2013-11-20,45.3,36.6,27.8,35.0,26.1,23.0,85,67,43,30.40,30.21,8,1,12,0.00
2013-11-21,51.6,45.9,38.9,45.0,40.5,35.0,90,81,72,30.25,30.16,4,0,9,0.08
2013-11-22,46.7,37.3,26.5,44.0,32.8,24.0,90,84,70,30.43,30.16,9,2,12,0.00
2013-11-23,31.3,24.4,17.5,25.0,15.8,7.0,89,71,49,30.62,30.33,14,4,21,0.00
2013-11-24,24.3,20.8,17.2,19.0,13.0,8.0,86,72,55,30.67,30.39,9,2,12,0.00
2013-11-25,34.3,27.3,21.5,31.0,20.6,10.0,91,77,58,30.39,30.07,11,4,18,0.09
2013-11-26,34.5,31.5,25.1,30.0,26.3,17.0,88,81,67,30.08,29.98,6,2,12,0.00
2013-11-27,30.3,24.6,21.2,20.0,15.9,13.0,83,70,53,30.25,30.06,7,2,16,0.00
2013-11-28,27.7,25.2,21.4,24.0,20.0,16.0,89,81,65,30.48,30.25,6,1,9,0.03
2013-11-29,33.3,26.6,18.6,27.0,21.9,16.0,91,83,71,30.69,30.48,4,0,5,0.00
2013-11-30,46.0,36.9,27.6,33.0,27.7,21.0,80,70,58,30.51,30.07,7,2,14,0.00
2013-12-1,43.2,38.3,34.3,35.0,31.4,27.0,90,77,60,30.10,30.02,4,0,9,0.00
2013-12-2,41.3,35.4,30.2,32.0,28.1,24.0,90,76,58,30.02,29.88,5,1,6,0.00
2013-12-3,35.5,33.7,30.9,33.0,30.0,24.0,90,86,69,29.90,29.80,8,2,11,0.70
2013-12-4,57.8,45.3,35.6,54.0,42.3,33.0,90,89,85,29.85,29.54,8,2,18,0.02
2013-12-5,55.3,35.9,27.2,52.0,29.2,19.0,88,77,67,30.20,29.56,19,6,23,0.00
2013-12-6,27.0,22.9,20.2,19.0,16.7,15.0,88,77,71,30.46,30.20,7,2,14,0.00
2013-12-7,20.3,17.7,12.3,17.0,13.5,10.0,90,83,77,30.67,30.46,6,2,9,0.00
2013-12-8,21.7,18.1,12.6,19.0,13.9,10.0,91,84,68,30.63,30.00,6,1,9,0.10
2013-12-9,28.6,23.8,16.4,26.0,18.8,10.0,91,81,67,30.16,29.89,15,5,24,0.03
2013-12-10,22.3,17.4,11.9,18.0,12.5,3.0,91,81,67,30.23,29.96,12,4,20,0.02
2013-12-11,20.6,16.7,12.2,18.0,13.5,9.0,91,87,77,30.50,30.23,10,3,13,0.03
2013-12-12,25.0,17.1,11.5,21.0,13.9,7.0,91,87,80,30.49,30.20,8,2,13,0.01
2013-12-13,30.4,25.8,21.2,23.0,20.6,16.0,87,80,71,30.28,30.17,6,1,11,0.00
2013-12-14,21.2,19.5,16.7,19.0,16.5,13.0,90,88,81,30.27,29.94,8,2,13,0.10
2013-12-15,23.5,19.3,15.5,21.0,15.2,10.0,91,84,72,30.09,29.86,10,3,18,0.02
2013-12-16,24.5,16.3,7.4,15.0,11.3,5.0,90,81,62,30.21,30.05,5,1,10,0.00
2013-12-17,31.4,26.3,18.3,28.0,23.2,15.0,91,88,76,30.04,29.88,8,2,16,0.07
2013-12-18,31.2,28.0,25.4,27.0,20.3,15.0,91,73,59,30.15,29.85,11,3,15,0.00
2013-12-19,41.0,35.3,29.2,35.0,31.2,23.0,91,85,74,29.98,29.82,5,1,11,0.00
2013-12-20,33.1,32.0,30.1,31.0,29.8,28.0,91,91,90,29.88,29.77,4,1,7,0.24
2013-12-21,33.7,32.2,30.2,31.0,30.0,28.0,92,91,91,29.89,29.72,6,1,12,0.15
2013-12-22,32.7,30.6,26.7,31.0,28.5,25.0,92,92,90,30.03,29.62,5,1,10,0.18
2013-12-23,28.1,23.9,17.3,25.0,21.4,15.0,92,90,81,30.34,30.04,7,1,11,0.01
2013-12-24,23.7,17.8,12.9,18.0,14.5,10.0,90,86,77,30.53,30.34,3,0,6,0.02
2013-12-25,25.7,21.1,13.7,24.0,18.3,11.0,92,88,83,30.48,30.08,8,2,11,0.04
2013-12-26,27.6,25.2,22.4,25.0,22.0,17.0,92,87,79,30.27,30.05,14,2,17,0.08
2013-12-27,40.3,33.4,28.0,34.0,29.7,26.0,92,86,75,30.32,30.05,11,2,19,0.00
2013-12-28,48.7,40.3,31.4,36.0,33.7,29.0,91,78,60,30.09,29.85,10,2,18,0.00
2013-12-29,42.2,31.5,18.7,34.0,25.3,11.0,90,78,68,30.11,29.75,7,3,15,0.00
2013-12-30,19.1,16.9,14.9,14.0,10.4,5.0,89,76,64,30.32,30.12,6,2,11,0.00
2013-12-31,17.8,15.4,13.3,15.0,12.4,10.0,91,88,80,30.40,30.14,8,3,16,0.01
2014-1-1,14.0,12.1,11.0,11.0,6.8,3.0,88,79,68,30.45,30.31,6,2,12,0.03
2014-1-2,14.8,11.2,2.6,9.0,4.6,-2.0,82,75,59,30.42,30.24,8,2,12,0.00